Location: Pilipovskiye Korichintsy
(49.1833°N, 27.4667°E)
Time: 22:05:26
(UTC+00:00)

Cosmos 540 Rocket - Pass Details

Date: 14 July 2020
Orbit: 740 x 754 km, 74.1° (Epoch: 10 August)

Event Time Altitude Azimuth Distance (km) Brightness Sun altitude
Rises 01:09:29 0° 339° (NNW) 3,199 7.1 -9.4°
Reaches altitude 10° 01:11:54 10° 343° (NNW) 2,273 6.4 -9.1°
Maximum altitude 01:16:58 57° 63° (ENE) 880 4.2 -8.6°
Drops below altitude 10° 01:22:02 10° 142° (SE) 2,267 5.9 -8.0°
Sets 01:24:25 0° 146° (SE) 3,189 6.6 -7.7°
